Location: D�derode
(51.8092°N, 10.1065°E)
Time: 05:59:52
(UTC+00:00)

Meteor 1-20 Rocket - Pass Details

Date: 01 December 2020
Orbit: 819 x 892 km, 81.2° (Epoch: 23 January)

Event Time Altitude Azimuth Distance (km) Brightness Sun altitude
Rises 15:52:50 0° 349° (N) 3,518 7.2 -6.1°
Reaches altitude 10° 15:55:23 10° 355° (N) 2,575 6.5 -6.5°
Maximum altitude 16:01:07 51° 71° (ENE) 1,110 4.5 -7.3°
Drops below altitude 10° 16:06:46 10° 147° (SSE) 2,543 6.6 -8.1°
Sets 16:09:16 0° 152° (SSE) 3,470 7.4 -8.4°
